Location: Unspecified
(0.0000°N, 0.0000°E)
Time: 13:08:40
(UTC+00:00)

N. Korean satellite - Pass Details

Date: 17 May 2019
Orbit: 457 x 507 km, 97.2° (Epoch: 23 August)

Event Time Altitude Azimuth Distance (km) Brightness Sun altitude
Rises 18:20:40 0° 194° (SSW) 2,582 10.2 -5.7°
Reaches altitude 10° 18:23:09 10° 211° (SSW) 1,704 9.5 -6.3°
Maximum altitude 18:25:51 20° 259° (W) 1,222 9.5 -6.9°
Drops below altitude 10° 18:28:34 10° 307° (NW) 1,710 10.8 -7.6°
Sets 18:31:05 0° 324° (NW) 2,595 11.3 -8.2°
